User: anonymous   Login
Location: Nairn
(57.5833°N, 3.8667°W)
Time: 00:36:31
(UTC+00:00)
Language:

Cosmos 1782 Rocket - Orbit

View from above orbital plane
View from above orbital plane
View from above satellite
View from above satellite

Ground track
Ground track

The orbit data is extracted from the following two-line orbital elements,

1 16987U 86074B   20292.94439319 +.00000056 +00000-0 +39894-5 0  9992
2 16987 082.5159 247.9939 0017648 197.4293 220.6220 14.83081726818143
Epoch (UTC): 18 October 2020 22:39:55
Eccentricity: 0.0017648
inclination: 82.5159°
perigee height: 607 km
apogee height: 632 km
right ascension of ascending node: 247.9939°
argument of perigee: 197.4293°
revolutions per day: 14.83081726
mean anomaly at epoch: 220.6220°
orbit number at epoch: 81814

The dashed part of the orbit path shows where the satellite is in the earth's shadow,  

DLR